Hourly Data Report for September 26, 2017

All times are specified in Local Standard Time (LST). Add 1 hour to adjust for Daylight Saving Time where and when it is observed.

SUMMERSIDE
PRINCE EDWARD ISLAND

46°26'28.000" N
63°50'17.000" W
12.20 m
8300596
71702
WSD

Download Data

Hourly Data (September 2017)
Hourly Data Report for September 26, 2017
Temp Definition
°C
Dew Point Temp Definition
°C
Rel Hum Definition
%
Wind Dir Definition
10's deg

Wind Spd Definition
km/h
Visibility Definition
km
Stn Press Definition
kPa
Hmdx Definition


Wind Chill Definition


Weather Definition


TIME
00:00 18.4 16.6 89 22 23   101.18     LegendNANA
01:00 18.1 16.5 91 22 21   101.18     LegendNANA
02:00 17.8 16.4 92 23 20   101.13     LegendNANA
03:00 18.0 16.4 90 22 25   101.08     LegendNANA
04:00 18.5 16.7 89 23 25   101.06     LegendNANA
05:00 18.1 16.5 90 23 24   101.08     LegendNANA
06:00 17.2 16.0 93 23 22   101.10     LegendNANA
07:00 17.7 16.5 93 23 21   101.10     LegendNANA
08:00 19.2 17.3 89 24 24   101.09     LegendNANA
09:00 20.7 18.1 85 25 22   101.08 27   LegendNANA
10:00 24.1 19.2 74 25 22   101.09 31   LegendNANA
11:00 25.7 19.5 69 24 18   101.04 33   LegendNANA
12:00 27.1 18.8 61 26 22   101.06 34   LegendNANA
13:00 28.8 19.4 57 28 18   101.04 36   LegendNANA
14:00 29.1 19.2 55 29 17   101.05 36   LegendNANA
15:00 19.4 14.6 74 4 31   101.19     LegendNANA
16:00 18.4 14.1 76 4 31   101.27     LegendNANA
17:00 17.3 13.4 78 4 25   101.36     LegendNANA
18:00 16.0 13.7 86 5 26   101.43     LegendNANA
19:00 15.7 13.3 86 5 28   101.50     LegendNANA
20:00 15.1 12.5 85 6 29   101.61     LegendNANA
21:00 14.7 11.4 81 6 22   101.67     LegendNANA
22:00 14.4 10.9 79 6 25   101.67     LegendNANA
23:00 14.2 10.5 78 6 25   101.66     LegendNANA

Notes on Data Quality.

Legend

  • E = Estimated
  • M = Missing
  • NA = Not Available
  • ‡ = Partner data that is not subject to review by the National Climate Archives
Date modified: